Location: *
(49.9853°N, 3.5569°E)
Time: 11:47:41
(UTC+00:00)

HJ-1C - Pass Details

Date: 22 September 2019
Orbit: 435 x 449 km, 97.2° (Epoch: 18 October)

Event Time Altitude Azimuth Distance (km) Brightness Sun altitude
Rises 18:55:22 0° 173° (S) 2,438 6.9 -12.1°
Reaches altitude 10° 18:57:24 10° 176° (S) 1,574 6.0 -12.4°
Maximum altitude 19:00:45 63° 259° (W) 506 3.9 -12.9°
Drops below altitude 10° 19:04:08 10° 341° (NNW) 1,592 6.7 -13.4°
Sets 19:06:12 0° 345° (NNW) 2,470 7.6 -13.7°
